NOAA 17 DEB, 49489

Orbit data source: Space-Track

NOAA 17 DEB, 49489 is space debris in SSO originally from a launch on Mon, 24 Jun 2002 UTC launched from the Air Force Western Test Range (AFWTR). Debris objects in space refer to the collection of defunct objects orbiting the Earth. Examples of debris include non-operational satellites, rocket bodies, and fragments generated from explosions, collisions, or faulty payload assembly.

Loading next visibility...
Identifier
49489, 2002-032DT
Orbit
SSO
Country
Flag of USUS
Related business
Manufacturer
Unknown
Mission
Spacecraft
Bus & Motor
Unknown
Mass
Unknown
Launch date (UTC)
2002-06-24 (23 years ago)
Launch vehicle
Unknown
Launch site
Air Force Western Test Range (AFWTR)
Object type
Payload
Rocket body
Debris
Shape & HBR
Unknown shape, 0.1 m
Radar Cross Section
Small (<0.1 m²)

Expand to show TLE details & history
Last TLE update: 2 days ago

TLE from 2 days ago
0 NOAA 17 DEB
1 49489U 02032DT  25347.34028532  .00097109  00000-0  84732-2 0  9991
2 49489  98.7730  24.6299 0023685 229.1603 130.7562 14.96135540229442
Epoch: 2025-12-13T08:10Z
TLE epoch observation values (Epoch: 2025-12-13T08:10:00.651Z)
Latitude
-0.00003°
Longitude
179.85823°
Altitude
592.648 km
Speed
7.558 km/s
True Right ascension
01h 38m 31s
True Declination
0° 00' 00"
Sunlit
Object was in full shadow at epoch
Visualization orbit readout
Latitude
Unknown
Longitude
Unknown
Altitude
Unknown
Speed
Unknown
Apparent Right ascension
Unknown
Apparent Declination
Unknown
Sunlit
N/A
Visualization observer readout
Local Sidereal Time
13:19:54
Azimuth
Unknown
Elevation
Unknown
Doppler factor
Unknown
Orbital elements
Apogee altitude
592.382 km
Perigee altitude
559.441 km
Semi-major axis
6,954.048 km
Eccentricity
0.00237
Inclination
98.773°
RAAN
24.6299°
Arg. of periapsis
229.1603°
True anomaly
130.96139°
Mean anomaly
130.7562°
Eccentric anomaly
130.85884°
Mean motion
3.74271 °/min
Orbital period
96.19 mins
BSTAR
0.0084732
Loading maneuver chart data...
Computing Atmospheric mass density...
Loading historical data...
Loading historical data...
Loading historical data...
Loading historical data...
Loading historical data...
Loading historical data...
Loading historical data...

Documentation

Showing up to 5 results
|